SCP
0 0 0 0 0 0 0 0 0 0 0 0 0 0 0 0 0 0 0 0 0 0 0 0 0 0 0 0 0 0 0 0 0 0 0 0 0 0 0 0 0 0 0
0 0 0 0 0 0 0 0 0 0 0 0 0 0 0 0 0 0 0 0 0 0 0 0 0 0 0 0 0 0 0 0 0 0 0 0 0 0 0 0 0 0 0
0 0 0 0 0 0 0 0 0 0 0 0 0 0 0 0 0 0 0 0 0 0 0 0 0 0 0 0 0 0 0 0 0 0 0 0 0 0 0 0 0 0 0
0 0 0 0 0 0 0 0 0 0 0 0 0 0 0 0 0 0 0 0 0 0 0 0 0 0 0 0 0 0 0 0 0 0 0 0 0 0 0 0 0 0 0
0 0 0 0 0 0 0 0 0 0 0 0 0 0 0 0 0 0 0 0 0 0 0 0 0 0 0 0 0 0 0 0 0 0 0 0 0 0 0 0 0 0 0
0 0 0 0 0 0 0 0 0 0 0 0 0 0 0 0 0 0 0 0 0 0 0 0 0 0 0 0 0 0 0 0 0 0 0 0 0 0 0 0 0 0 0
0 0 0 0 0 0 0 0 0 0 0 0 0 0 0 0 0 0 0 0 0 0 0 0 0 0 0 0 0 0 0 0 0 0 0 0 0 0 0 0 0 0 0
0 0 0 0 0 0 0 0 0 0 0 0 0 0 0 0 0 0 0 0 0 0 0 0 0 0 0 0 0 0 0 0 0 0 0 0 0 0 0 0 0 0 0
0 0 0 0 0 0 0 0 0 0 0 0 0 0 0 0 0 0 0 0 0 0 0 0 0 0 0 0 0 0 0 0 0 0 0 0 0 0 0 0 0 0 0
0 0 0 0 0 0 0 0 0 0 0 0 0 0 0 0 0 0 0 0 0 0 0 0 0 0 0 0 0 0 0 0 0 0 0 0 0 0 0 0 0 0 0
0 0 0 0 0 0 0 0 0 0 0 0 0 0 0 0 0 0 0 0 0 0 0 0 0 0 0 0 0 0 0 0 0 0 0 0 0 0 0 0 0 0 0
0 0 0 0 0 0 0 0 0 0 0 0 0 0 0 0 0 0 0 0 0 0 0 0 0 0 0 0 0 0 0 0 0 0 0 0 0 0 0 0 0 0 0
0 0 0 0 0 0 0 0 0 0 0 0 0 0 0 0 0 0 0 0 0 0 0 0 0 0 0 0 0 0 0 0 0 0 0 0 0 0 0 0 0 0 0
0 0 0 0 0 0 0 0 0 0 0 0 0 0 0 0 0 0 0 0 0 0 0 0 0 0 0 0 0 0 0 0 0 0 0 0 0 0 0 0 0 0 0
0 0 0 0 0 0 0 0 0 0 0 0 0 0 0 0 0 0 0 0 0 0 0 0 0 0 0 0 0 0 0 0 0 0 0 0 0 0 0 0 0 0 0
0 0 0 0 0 0 0 0 0 0 0 0 0 0 0 0 0 0 0 0 0 0 0 0 0 0 0 0 0 0 0 0 0 0 0 0 0 0 0 0 0 0 0
0 0 0 0 0 0 0 0 0 0 0 0 0 0 0 0 0 0 0 0 0 0 0 0 0 0 0 0 0 0 0 0 0 0 0 0 0 0 0 0 0 0 0
0 0 0 0 -0 -0 -0 -0 -0 0 0 0 0 0 0 0 0 0 0 0 0 0 0 0 0 0 0 0 0 0 0 0 0 0 0 0 0 0 0 0 0 0 0
0 0 0 0 0 0 -0 -0 -0 -0 -0 -0 -0 -0 0 0 0 0 0 0 0 0 0 0 0 0 0 0 0 0 0 0 0 0 0 0 0 0 0 0 0 0 0
0 0 0 0 0 0 0 0 0 0 0 0 0 0 0 -0 0 0 0 0 0 0 0 0 0 0 0 0 0 0 0 0 0 0 0 0 0 0 0 0 0 0 0
0 0 0 0 0 0 0 0 0 0 0 0 0 0 0 -0 0 0 0 0 0 0 0 0 0 0 0 0 0 0 0 0 0 0 0 0 0 0 0 0 0 0 0
0 0 0 0 0 0 0 0 0 0 0 0 0 0 0 0 0 0 0 0 0 0 0 0 0 0 0 0 0 0 0 0 0 0 0 0 0 0 0 0 0 0 0
0 0 0 0 0 0 0 0 0 0 0 0 0 0 0 0 0 0 0 0 0 0 0 0 0 0 0 0 0 0 0 0 0 0 0 0 0 0 0 0 0 0 0
0 0 0 0 0 0 0 0 0 0 0 0 0 0 0 0 0 0 0 0 0 0 0 0 0 0 0 0 0 0 0 0 0 0 0 0 0 0 0 0 0 0 0
0 0 0 0 0 0 0 0 0 0 0 0 0 0 0 0 0 0 0 0 0 0 0 0 0 0 0 0 0 0 0 0 0 0 0 0 0 0 0 0 0 0 0
0 0 0 0 0 0 0 0 0 0 0 0 0 0 0 0 0 0 0 0 0 0 0 -0 0 0 0 0 0 0 0 0 0 0 0 0 0 0 0 0 0 0 0
Wind_Speed_500mb
56 50 51 49 60 60 64 67 72 76 80 83 80 75 68 71 64 64 63 62 61 61 65 66 57 60 50 56 54 53 52 50 48 49 42 35 36 36 37 35 31 27 25
50 48 49 48 54 61 61 70 76 78 84 88 85 83 75 72 71 68 68 67 63 60 68 65 68 64 62 60 67 61 62 61 59 56 48 33 33 41 38 38 32 31 29
28 24 31 37 40 60 66 63 73 79 84 89 89 87 75 75 78 80 76 73 67 64 66 63 66 75 66 63 69 74 61 68 66 63 39 23 26 47 44 42 38 35 34
16 16 16 22 39 43 65 65 67 75 80 84 87 86 82 78 84 84 80 75 72 72 70 70 63 73 63 77 72 65 79 72 72 72 73 55 34 36 33 51 47 42 38
20 20 14 15 19 27 53 66 65 70 75 77 80 80 78 79 72 79 81 78 78 75 75 74 71 73 69 80 77 75 88 83 78 78 77 74 53 39 37 47 62 54 48
21 20 17 10 7 18 29 53 59 62 66 71 77 78 76 72 71 71 75 76 79 81 80 76 74 71 76 81 76 82 81 79 82 83 93 81 79 74 65 46 63 60 58
23 24 21 17 7 10 19 33 44 52 57 63 68 69 68 65 64 68 71 73 76 78 77 77 80 81 79 79 81 81 90 77 95 88 93 92 91 80 70 55 52 68 56
38 37 29 22 19 15 13 21 33 42 47 52 55 57 58 59 60 59 62 64 68 71 73 74 76 78 79 79 84 80 89 80 98 94 89 97 91 84 71 64 55 56 56
43 40 41 39 30 22 13 14 20 28 37 43 47 51 52 54 53 53 55 57 59 59 61 66 71 73 77 78 83 76 83 88 87 85 95 97 85 86 82 60 55 62 57
39 40 40 41 39 34 25 17 17 24 30 36 40 44 47 49 48 48 50 50 52 55 57 60 61 63 64 68 72 79 79 81 83 85 91 90 88 88 85 77 63 65 54
38 40 41 41 43 44 40 32 24 20 21 25 30 35 39 41 42 42 42 45 48 50 54 56 58 62 64 65 72 77 75 79 86 81 87 86 88 88 87 80 75 73 59
35 35 35 36 35 35 36 38 33 23 20 19 21 27 31 35 37 40 42 45 47 49 51 54 58 61 59 63 69 73 72 79 85 77 81 86 85 85 86 79 79 71 68
36 35 36 36 33 33 34 34 33 33 25 22 24 27 30 34 37 40 42 45 47 49 51 55 57 56 57 61 66 73 74 74 76 79 81 81 82 83 80 79 80 68 68
38 37 38 39 41 41 39 35 31 31 29 30 30 33 38 43 47 48 49 53 55 55 57 59 60 60 60 64 66 73 77 74 77 78 75 78 79 82 81 82 72 70 81
33 32 34 36 37 38 39 37 37 36 34 35 36 36 38 45 50 55 59 61 62 64 64 66 66 68 70 70 69 70 75 81 79 79 77 77 76 76 77 76 73 85 89
29 27 29 34 39 43 44 46 46 46 45 41 38 38 41 43 45 50 56 62 67 70 73 75 74 76 77 75 70 74 76 80 85 83 82 81 81 80 71 74 83 84 88
24 27 30 32 35 40 43 46 49 50 50 50 47 45 43 46 47 48 53 59 64 68 74 79 80 83 83 78 75 77 82 84 86 89 88 89 88 88 82 81 80 83 79
23 24 27 30 35 40 41 42 44 46 49 52 52 51 53 54 53 55 57 60 64 70 73 77 80 82 84 81 82 80 87 90 92 93 94 91 91 97 88 85 85 79 66
21 22 25 29 32 38 43 45 47 49 50 50 50 51 53 54 55 56 60 62 66 72 77 79 80 83 85 81 82 89 94 96 98 97 96 93 94 96 94 94 86 82 75
16 19 22 26 31 36 39 44 47 50 51 52 52 51 52 53 53 53 55 57 62 69 72 77 80 82 85 83 83 92 99 104 101 97 97 95 95 94 101 93 89 93 81
18 20 23 29 34 38 40 40 40 45 47 51 53 54 49 47 49 55 57 63 67 67 69 73 75 79 81 82 82 91 95 102 102 99 97 92 92 94 97 93 93 90 82
18 23 27 28 32 36 37 35 37 42 46 51 55 57 59 51 50 53 54 57 63 66 65 69 73 75 78 79 82 88 86 94 101 101 97 89 93 101 94 86 88 80 80
26 31 35 35 34 37 42 45 46 50 53 56 58 60 60 61 66 67 56 56 57 59 62 64 69 72 74 78 76 77 74 89 104 97 91 80 87 98 91 91 87 81 83
34 39 42 44 44 47 49 53 56 59 62 65 65 64 65 64 61 63 65 60 56 60 59 64 68 64 67 69 70 70 68 71 105 99 82 80 88 100 103 100 99 93 87
40 45 49 51 52 54 55 58 62 66 70 70 70 69 65 65 65 64 64 66 63 54 57 58 60 61 62 62 58 58 59 59 100 100 82 82 89 100 101 112 101 91 81
43 46 48 52 55 59 63 65 67 66 69 72 71 70 68 62 62 61 61 60 65 63 55 53 51 59 53 48 50 49 47 52 82 89 87 86 97 103 99 104 96 88 82
Wind_Direction_500mb
260 256 258 255 245 240 235 232 229 228 228 226 228 228 230 232 232 229 228 229 232 234 234 234 238 238 242 233 233 231 224 211 212 201 192 188 197 206 213 221 221 222 220
275 266 259 255 246 239 238 231 230 232 233 232 234 237 233 232 234 233 230 229 232 236 233 235 237 241 242 235 236 232 217 222 217 207 192 189 203 208 212 218 215 215 218
297 286 267 255 249 238 236 237 231 232 234 236 236 235 239 232 235 234 236 234 236 235 238 239 236 243 240 252 246 244 251 236 220 218 209 190 213 208 214 216 217 215 215
308 295 288 266 250 252 238 239 236 235 237 240 240 242 246 238 237 240 240 241 241 238 237 237 244 245 252 235 259 251 250 237 234 223 219 228 233 191 203 214 215 214 211
37 22 356 292 277 262 239 236 240 239 242 244 246 247 248 245 246 246 245 244 245 243 239 240 240 241 251 250 249 254 234 252 241 240 226 227 227 221 212 208 209 209 209
45 34 22 18 296 265 247 233 237 244 247 247 246 245 247 251 252 251 249 246 242 240 241 240 240 246 251 245 256 248 242 245 252 239 234 233 230 230 221 213 207 209 211
58 47 35 30 18 254 240 232 236 242 246 247 249 251 254 252 254 255 254 252 247 244 245 249 247 248 248 250 250 246 250 243 250 242 240 239 237 239 231 221 208 202 208
62 52 41 31 13 347 302 258 250 251 253 257 258 257 255 252 256 259 257 255 252 252 253 250 250 251 251 250 251 250 247 255 246 244 247 244 240 235 235 233 217 195 204
57 52 45 39 31 23 358 300 273 261 258 257 258 258 259 263 266 264 263 257 253 251 251 250 250 249 248 249 248 247 250 252 248 248 250 246 243 238 235 232 225 226 210
52 50 45 40 35 28 20 360 313 280 263 259 258 260 264 268 269 267 261 257 254 253 255 256 255 250 244 245 246 247 248 249 249 250 249 244 240 237 231 228 220 235 228
57 52 45 41 42 37 28 20 5 327 295 273 264 262 265 269 269 264 259 256 256 257 258 259 257 253 255 246 246 248 248 252 252 248 248 245 241 235 231 225 224 234 226
59 49 42 36 32 28 25 22 19 6 341 322 307 294 282 272 267 265 263 260 259 259 259 256 257 257 253 250 246 249 252 251 250 250 249 247 241 235 233 230 229 222 219
61 50 38 32 23 16 13 12 11 3 353 340 327 320 309 297 294 287 280 271 268 264 259 259 261 260 257 251 253 255 255 255 253 254 250 245 238 233 229 227 224 218 219
62 54 45 37 33 28 19 11 5 356 347 339 330 322 320 315 308 299 290 283 279 272 268 266 264 259 256 252 256 254 251 253 253 253 249 246 240 237 232 230 225 219 217
57 43 33 25 18 14 12 8 7 2 350 335 324 317 310 308 309 306 302 296 289 283 278 273 268 262 258 256 258 257 256 254 252 250 248 243 240 237 238 239 221 220 209
44 32 20 12 6 359 356 354 350 347 343 340 334 324 311 300 297 297 299 297 293 290 285 279 273 269 263 260 260 260 258 256 253 250 247 241 236 231 235 231 228 217 210
31 20 12 6 358 349 345 343 341 338 333 330 327 322 315 307 297 292 291 291 292 290 287 283 279 274 269 264 260 262 258 255 253 251 248 242 236 226 228 229 219 213 209
30 15 1 352 349 346 346 347 343 340 337 333 329 324 318 313 308 298 292 289 290 288 287 284 280 276 272 266 260 259 259 256 254 251 247 242 235 225 224 215 206 206 216
16 1 353 344 336 331 335 339 340 340 339 338 335 331 324 319 312 309 304 297 291 289 288 286 283 278 275 271 264 259 256 255 253 249 246 240 234 225 216 208 208 214 226
352 348 346 340 333 326 323 323 330 333 332 334 336 333 330 323 317 314 311 307 297 291 288 285 283 280 276 272 267 262 257 254 251 245 243 241 233 224 211 208 215 225 227
327 327 327 325 323 324 328 324 319 324 326 326 329 329 325 323 324 318 316 312 304 294 289 288 288 286 282 278 271 265 258 254 250 245 240 235 231 220 214 215 230 232 238
310 311 315 316 315 317 318 321 319 316 316 315 316 317 318 317 316 316 317 315 311 305 300 294 291 290 289 284 277 269 265 251 250 248 240 230 230 219 215 226 236 236 238
315 314 309 307 308 308 313 314 315 315 315 315 316 317 311 307 307 308 307 312 314 310 308 301 296 296 296 292 287 280 271 239 242 247 243 231 226 224 227 235 234 229 238
313 311 309 306 304 302 307 311 312 312 312 312 311 311 309 307 301 300 303 305 308 313 309 305 299 299 298 297 295 286 273 237 239 243 245 226 226 230 232 236 232 235 238
306 305 305 304 305 304 304 306 306 308 309 308 308 308 306 304 301 297 297 297 301 304 308 304 301 297 296 298 300 294 283 254 235 240 238 228 225 221 231 231 229 231 229
308 306 306 307 305 305 307 307 306 306 306 306 307 305 304 303 302 300 298 296 297 298 301 303 296 296 296 296 293 290 284 256 236 230 230 235 226 221 231 230 224 226 232
Wind_Speed_850mb
56 50 51 49 60 60 64 67 72 76 80 83 80 75 68 71 64 64 63 62 61 61 65 66 57 60 50 56 54 53 52 50 48 49 42 35 36 36 37 35 31 27 25
50 48 49 48 54 61 61 70 76 78 84 88 85 83 75 72 71 68 68 67 63 60 68 65 68 64 62 60 67 61 62 61 59 56 48 33 33 41 38 38 32 31 29
28 24 31 37 40 60 66 63 73 79 84 89 89 87 75 75 78 80 76 73 67 64 66 63 66 75 66 63 69 74 61 68 66 63 39 23 26 47 44 42 38 35 34
16 16 16 22 39 43 65 65 67 75 80 84 87 86 82 78 84 84 80 75 72 72 70 70 63 73 63 77 72 65 79 72 72 72 73 55 34 36 33 51 47 42 38
20 20 14 15 19 27 53 66 65 70 75 77 80 80 78 79 72 79 81 78 78 75 75 74 71 73 69 80 77 75 88 83 78 78 77 74 53 39 37 47 62 54 48
21 20 17 10 7 18 29 53 59 62 66 71 77 78 76 72 71 71 75 76 79 81 80 76 74 71 76 81 76 82 81 79 82 83 93 81 79 74 65 46 63 60 58
23 24 21 17 7 10 19 33 44 52 57 63 68 69 68 65 64 68 71 73 76 78 77 77 80 81 79 79 81 81 90 77 95 88 93 92 91 80 70 55 52 68 56
38 37 29 22 19 15 13 21 33 42 47 52 55 57 58 59 60 59 62 64 68 71 73 74 76 78 79 79 84 80 89 80 98 94 89 97 91 84 71 64 55 56 56
43 40 41 39 30 22 13 14 20 28 37 43 47 51 52 54 53 53 55 57 59 59 61 66 71 73 77 78 83 76 83 88 87 85 95 97 85 86 82 60 55 62 57
39 40 40 41 39 34 25 17 17 24 30 36 40 44 47 49 48 48 50 50 52 55 57 60 61 63 64 68 72 79 79 81 83 85 91 90 88 88 85 77 63 65 54
38 40 41 41 43 44 40 32 24 20 21 25 30 35 39 41 42 42 42 45 48 50 54 56 58 62 64 65 72 77 75 79 86 81 87 86 88 88 87 80 75 73 59
35 35 35 36 35 35 36 38 33 23 20 19 21 27 31 35 37 40 42 45 47 49 51 54 58 61 59 63 69 73 72 79 85 77 81 86 85 85 86 79 79 71 68
36 35 36 36 33 33 34 34 33 33 25 22 24 27 30 34 37 40 42 45 47 49 51 55 57 56 57 61 66 73 74 74 76 79 81 81 82 83 80 79 80 68 68
38 37 38 39 41 41 39 35 31 31 29 30 30 33 38 43 47 48 49 53 55 55 57 59 60 60 60 64 66 73 77 74 77 78 75 78 79 82 81 82 72 70 81
33 32 34 36 37 38 39 37 37 36 34 35 36 36 38 45 50 55 59 61 62 64 64 66 66 68 70 70 69 70 75 81 79 79 77 77 76 76 77 76 73 85 89
29 27 29 34 39 43 44 46 46 46 45 41 38 38 41 43 45 50 56 62 67 70 73 75 74 76 77 75 70 74 76 80 85 83 82 81 81 80 71 74 83 84 88
24 27 30 32 35 40 43 46 49 50 50 50 47 45 43 46 47 48 53 59 64 68 74 79 80 83 83 78 75 77 82 84 86 89 88 89 88 88 82 81 80 83 79
23 24 27 30 35 40 41 42 44 46 49 52 52 51 53 54 53 55 57 60 64 70 73 77 80 82 84 81 82 80 87 90 92 93 94 91 91 97 88 85 85 79 66
21 22 25 29 32 38 43 45 47 49 50 50 50 51 53 54 55 56 60 62 66 72 77 79 80 83 85 81 82 89 94 96 98 97 96 93 94 96 94 94 86 82 75
16 19 22 26 31 36 39 44 47 50 51 52 52 51 52 53 53 53 55 57 62 69 72 77 80 82 85 83 83 92 99 104 101 97 97 95 95 94 101 93 89 93 81
18 20 23 29 34 38 40 40 40 45 47 51 53 54 49 47 49 55 57 63 67 67 69 73 75 79 81 82 82 91 95 102 102 99 97 92 92 94 97 93 93 90 82
18 23 27 28 32 36 37 35 37 42 46 51 55 57 59 51 50 53 54 57 63 66 65 69 73 75 78 79 82 88 86 94 101 101 97 89 93 101 94 86 88 80 80
26 31 35 35 34 37 42 45 46 50 53 56 58 60 60 61 66 67 56 56 57 59 62 64 69 72 74 78 76 77 74 89 104 97 91 80 87 98 91 91 87 81 83
34 39 42 44 44 47 49 53 56 59 62 65 65 64 65 64 61 63 65 60 56 60 59 64 68 64 67 69 70 70 68 71 105 99 82 80 88 100 103 100 99 93 87
40 45 49 51 52 54 55 58 62 66 70 70 70 69 65 65 65 64 64 66 63 54 57 58 60 61 62 62 58 58 59 59 100 100 82 82 89 100 101 112 101 91 81
43 46 48 52 55 59 63 65 67 66 69 72 71 70 68 62 62 61 61 60 65 63 55 53 51 59 53 48 50 49 47 52 82 89 87 86 97 103 99 104 96 88 82
Wind_Direction_850mb
260 256 258 255 245 240 235 232 229 228 228 226 228 228 230 232 232 229 228 229 232 234 234 234 238 238 242 233 233 231 224 211 212 201 192 188 197 206 213 221 221 222 220
275 266 259 255 246 239 238 231 230 232 233 232 234 237 233 232 234 233 230 229 232 236 233 235 237 241 242 235 236 232 217 222 217 207 192 189 203 208 212 218 215 215 218
297 286 267 255 249 238 236 237 231 232 234 236 236 235 239 232 235 234 236 234 236 235 238 239 236 243 240 252 246 244 251 236 220 218 209 190 213 208 214 216 217 215 215
308 295 288 266 250 252 238 239 236 235 237 240 240 242 246 238 237 240 240 241 241 238 237 237 244 245 252 235 259 251 250 237 234 223 219 228 233 191 203 214 215 214 211
37 22 356 292 277 262 239 236 240 239 242 244 246 247 248 245 246 246 245 244 245 243 239 240 240 241 251 250 249 254 234 252 241 240 226 227 227 221 212 208 209 209 209
45 34 22 18 296 265 247 233 237 244 247 247 246 245 247 251 252 251 249 246 242 240 241 240 240 246 251 245 256 248 242 245 252 239 234 233 230 230 221 213 207 209 211
58 47 35 30 18 254 240 232 236 242 246 247 249 251 254 252 254 255 254 252 247 244 245 249 247 248 248 250 250 246 250 243 250 242 240 239 237 239 231 221 208 202 208
62 52 41 31 13 347 302 258 250 251 253 257 258 257 255 252 256 259 257 255 252 252 253 250 250 251 251 250 251 250 247 255 246 244 247 244 240 235 235 233 217 195 204
57 52 45 39 31 23 358 300 273 261 258 257 258 258 259 263 266 264 263 257 253 251 251 250 250 249 248 249 248 247 250 252 248 248 250 246 243 238 235 232 225 226 210
52 50 45 40 35 28 20 360 313 280 263 259 258 260 264 268 269 267 261 257 254 253 255 256 255 250 244 245 246 247 248 249 249 250 249 244 240 237 231 228 220 235 228
57 52 45 41 42 37 28 20 5 327 295 273 264 262 265 269 269 264 259 256 256 257 258 259 257 253 255 246 246 248 248 252 252 248 248 245 241 235 231 225 224 234 226
59 49 42 36 32 28 25 22 19 6 341 322 307 294 282 272 267 265 263 260 259 259 259 256 257 257 253 250 246 249 252 251 250 250 249 247 241 235 233 230 229 222 219
61 50 38 32 23 16 13 12 11 3 353 340 327 320 309 297 294 287 280 271 268 264 259 259 261 260 257 251 253 255 255 255 253 254 250 245 238 233 229 227 224 218 219
62 54 45 37 33 28 19 11 5 356 347 339 330 322 320 315 308 299 290 283 279 272 268 266 264 259 256 252 256 254 251 253 253 253 249 246 240 237 232 230 225 219 217
57 43 33 25 18 14 12 8 7 2 350 335 324 317 310 308 309 306 302 296 289 283 278 273 268 262 258 256 258 257 256 254 252 250 248 243 240 237 238 239 221 220 209
44 32 20 12 6 359 356 354 350 347 343 340 334 324 311 300 297 297 299 297 293 290 285 279 273 269 263 260 260 260 258 256 253 250 247 241 236 231 235 231 228 217 210
31 20 12 6 358 349 345 343 341 338 333 330 327 322 315 307 297 292 291 291 292 290 287 283 279 274 269 264 260 262 258 255 253 251 248 242 236 226 228 229 219 213 209
30 15 1 352 349 346 346 347 343 340 337 333 329 324 318 313 308 298 292 289 290 288 287 284 280 276 272 266 260 259 259 256 254 251 247 242 235 225 224 215 206 206 216
16 1 353 344 336 331 335 339 340 340 339 338 335 331 324 319 312 309 304 297 291 289 288 286 283 278 275 271 264 259 256 255 253 249 246 240 234 225 216 208 208 214 226
352 348 346 340 333 326 323 323 330 333 332 334 336 333 330 323 317 314 311 307 297 291 288 285 283 280 276 272 267 262 257 254 251 245 243 241 233 224 211 208 215 225 227
327 327 327 325 323 324 328 324 319 324 326 326 329 329 325 323 324 318 316 312 304 294 289 288 288 286 282 278 271 265 258 254 250 245 240 235 231 220 214 215 230 232 238
310 311 315 316 315 317 318 321 319 316 316 315 316 317 318 317 316 316 317 315 311 305 300 294 291 290 289 284 277 269 265 251 250 248 240 230 230 219 215 226 236 236 238
315 314 309 307 308 308 313 314 315 315 315 315 316 317 311 307 307 308 307 312 314 310 308 301 296 296 296 292 287 280 271 239 242 247 243 231 226 224 227 235 234 229 238
313 311 309 306 304 302 307 311 312 312 312 312 311 311 309 307 301 300 303 305 308 313 309 305 299 299 298 297 295 286 273 237 239 243 245 226 226 230 232 236 232 235 238
306 305 305 304 305 304 304 306 306 308 309 308 308 308 306 304 301 297 297 297 301 304 308 304 301 297 296 298 300 294 283 254 235 240 238 228 225 221 231 231 229 231 229
308 306 306 307 305 305 307 307 306 306 306 306 307 305 304 303 302 300 298 296 297 298 301 303 296 296 296 296 293 290 284 256 236 230 230 235 226 221 231 230 224 226 232